Waarnemingen

Advertentie
Mijn weer
Spa/La Sauveniere, België (6490): temperatuur & dauwpunt: 12.10.2018 18:00:00 - 18.10.2018 18:00:00 (CEST)Spa/La Sauveniere, België (6490): windsnelheid & windstoten: 12.10.2018 18:00:00 - 18.10.2018 18:00:00 (CEST)Spa/La Sauveniere, België (6490): windrichting: 12.10.2018 18:00:00 - 18.10.2018 18:00:00 (CEST)Spa/La Sauveniere, België (6490): luchtdruk: 12.10.2018 18:00:00 - 18.10.2018 18:00:00 (CEST)Spa/La Sauveniere, België (6490): zicht: 12.10.2018 18:00:00 - 18.10.2018 18:00:00 (CEST)
Datum & Tijd tt [°C] td [°C] ff [km/u] ff [kn] fx [km/u] fx [kn] dd ppp [hPa] vv [km]
18.10.2018 18:00:00 12,0 9,4 4 2 18 10 NO 1023,4 -
18.10.2018 17:00:00 12,6 9,8 11 6 - - NO 1023,3 -
18.10.2018 16:00:00 12,3 9,9 7 4 14 8 NO 1023,5 3,5
18.10.2018 15:00:00 11,4 10,3 11 6 18 10 ONO 1023,8 1,8
18.10.2018 14:00:00 11,1 10,5 7 4 - - NNO 1023,9 0,1
18.10.2018 13:00:00 11,8 10,5 7 4 18 10 NNO 1023,6 1,1
18.10.2018 12:00:00 12,9 10,5 7 4 18 10 NO 1023,3 3,3
18.10.2018 11:00:00 11,9 10,8 7 4 - - NO 1023,3 1,3
18.10.2018 10:00:00 11,8 10,5 7 4 14 8 O 1022,9 1,7
18.10.2018 09:00:00 11,1 10,5 7 4 18 10 NNO 1023,1 0,1
18.10.2018 08:00:00 11,1 10,6 11 6 - - NNO 1022,6 0,1
18.10.2018 07:00:00 11,3 10,6 7 4 18 10 NNO 1022,2 0,1
18.10.2018 06:00:00 11,1 10,6 7 4 14 8 NO 1022,1 0,1
18.10.2018 05:00:00 11,0 10,3 7 4 - - NNO 1022,0 -
18.10.2018 04:00:00 11,0 9,4 4 2 7 4 N 1021,9 -
18.10.2018 03:00:00 11,1 9,2 0 0 4 2 N 1021,7 0,8
18.10.2018 02:00:00 11,2 7,9 4 2 - - ZO 1021,7 1,8
18.10.2018 01:00:00 11,5 7,6 4 2 7 4 O 1021,8 2,5
18.10.2018 00:00:00 11,9 7,8 0 0 7 4 N 1021,7 2,8
17.10.2018 23:00:00 12,5 8,2 7 4 - - ONO 1021,4 3,7
17.10.2018 22:00:00 12,6 7,6 7 4 11 6 NO 1021,2 4,9
17.10.2018 21:00:00 13,3 7,7 4 2 11 6 O 1020,7 5
17.10.2018 20:00:00 13,7 7,5 4 2 - - NNO 1020,1 5
17.10.2018 19:00:00 14,1 8,1 7 4 14 8 N 1019,7 -
17.10.2018 18:00:00 16,7 10,2 7 4 14 8 N 1018,8 9
17.10.2018 17:00:00 18,6 9,4 7 4 - - NNW 1018,2 15
17.10.2018 16:00:00 19,4 9,6 7 4 14 8 N 1018,0 16
17.10.2018 15:00:00 19,4 8,6 7 4 11 6 NNW 1018,2 23
17.10.2018 14:00:00 19,0 7,8 4 2 - - N 1018,6 35
17.10.2018 13:00:00 18,5 9,2 4 2 11 6 - 1019,0 30
17.10.2018 12:00:00 17,1 9,5 7 4 11 6 NNW 1019,4 35
17.10.2018 11:00:00 17,5 10,7 4 2 - - OZO 1019,0 30
17.10.2018 10:00:00 14,6 7,9 0 0 11 6 N 1019,3 30
17.10.2018 09:00:00 11,6 5,6 7 4 14 8 ZO 1020,0 35
17.10.2018 08:00:00 12,4 6,0 11 6 - - Z 1019,4 40
17.10.2018 07:00:00 14,7 6,9 14 8 22 12 Z 1018,9 40
17.10.2018 06:00:00 13,9 6,6 14 8 22 12 ZZO 1019,1 40
17.10.2018 05:00:00 13,5 6,0 18 10 - - ZZO 1019,1 40
17.10.2018 04:00:00 14,2 6,1 14 8 25 14 ZZO 1019,1 45
17.10.2018 03:00:00 14,4 6,3 18 10 22 12 ZZO 1019,3 40
17.10.2018 02:00:00 15,1 6,5 14 8 - - ZZO 1019,4 40
17.10.2018 01:00:00 14,9 6,4 18 10 25 14 ZZO 1019,5 40
17.10.2018 00:00:00 15,1 6,5 18 10 22 12 ZZO 1019,9 40
16.10.2018 23:00:00 15,1 5,6 14 8 - - ZZO 1020,1 40
16.10.2018 22:00:00 15,0 5,4 11 6 14 8 ZZO 1020,1 40
16.10.2018 21:00:00 13,7 4,8 11 6 11 6 ZZO 1020,3 40
16.10.2018 20:00:00 14,5 4,0 7 4 - - ZZO 1019,8 45
16.10.2018 19:00:00 16,3 4,7 7 4 7 4 Z 1019,2 40
16.10.2018 18:00:00 19,9 6,6 4 2 14 8 Z 1018,2 40
16.10.2018 17:00:00 21,4 6,6 7 4 - - ZO 1017,9 40
16.10.2018 16:00:00 21,4 6,4 7 4 14 8 ZO 1018,0 35
16.10.2018 15:00:00 21,8 6,6 11 6 18 10 ZZO 1017,9 45
16.10.2018 14:00:00 21,7 7,1 11 6 - - ZZO 1018,0 30
16.10.2018 13:00:00 21,4 7,5 14 8 22 12 ZO 1018,2 40
16.10.2018 12:00:00 20,8 9,2 11 6 18 10 ZZO 1018,4 40
16.10.2018 11:00:00 20,5 10,9 11 6 - - ZZO 1018,2 30
16.10.2018 10:00:00 18,1 9,3 11 6 14 8 ZZO 1018,5 40
16.10.2018 09:00:00 15,6 7,0 14 8 18 10 ZZO 1018,6 45
16.10.2018 08:00:00 13,2 5,8 14 8 - - ZZO 1018,6 45
16.10.2018 07:00:00 13,4 5,8 14 8 22 12 ZZO 1018,4 45
16.10.2018 06:00:00 13,6 5,7 14 8 22 12 ZZO 1018,2 45
16.10.2018 05:00:00 15,2 6,5 18 10 - - ZZO 1017,6 45
16.10.2018 04:00:00 15,2 6,0 14 8 22 12 ZZO 1017,6 40
16.10.2018 03:00:00 15,6 6,6 18 10 22 12 ZZO 1017,2 40
16.10.2018 02:00:00 15,4 6,6 18 10 - - ZZO 1016,9 45
16.10.2018 01:00:00 14,4 6,6 14 8 18 10 ZZO 1016,8 45
16.10.2018 00:00:00 14,0 5,9 14 8 14 8 ZZO 1016,7 45
15.10.2018 23:00:00 12,9 5,4 7 4 - - ZO 1016,9 45
15.10.2018 22:00:00 12,9 4,9 11 6 14 8 ZZO 1016,5 40
15.10.2018 21:00:00 13,5 4,7 4 2 11 6 ZZW 1016,2 40
15.10.2018 20:00:00 14,2 4,7 4 2 - - Z 1016,0 45
15.10.2018 19:00:00 15,9 5,4 4 2 7 4 ZZO 1015,1 45
15.10.2018 18:00:00 19,8 6,6 4 2 18 10 - 1013,8 35
15.10.2018 17:00:00 21,0 6,1 11 6 - - W 1013,1 35
15.10.2018 16:00:00 21,8 5,8 11 6 22 12 WZW 1012,6 35
15.10.2018 15:00:00 21,6 6,2 11 6 25 14 WZW 1012,7 40
15.10.2018 14:00:00 20,8 6,9 18 10 - - ZZW 1012,9 35
15.10.2018 13:00:00 19,8 6,4 14 8 29 16 Z 1013,1 40
15.10.2018 12:00:00 18,7 7,2 14 8 29 16 Z 1013,2 35
15.10.2018 11:00:00 17,4 7,2 14 8 - - Z 1013,2 30
15.10.2018 10:00:00 16,1 6,5 14 8 29 16 Z 1013,0 40
15.10.2018 09:00:00 15,4 6,2 18 10 29 16 Z 1012,6 40
15.10.2018 08:00:00 14,8 5,9 18 10 - - Z 1012,1 45
15.10.2018 07:00:00 15,1 5,9 18 10 36 19 Z 1011,5 40
15.10.2018 06:00:00 15,3 5,7 22 12 36 19 Z 1010,9 40
15.10.2018 05:00:00 15,4 5,3 18 10 - - Z 1010,7 40
15.10.2018 04:00:00 16,2 5,6 14 8 29 16 Z 1010,9 45
15.10.2018 03:00:00 16,6 5,7 18 10 29 16 Z 1010,8 45
15.10.2018 02:00:00 16,5 5,2 18 10 - - Z 1010,9 45
15.10.2018 01:00:00 16,5 4,9 22 12 36 19 Z 1010,5 45
15.10.2018 00:00:00 15,5 4,5 14 8 29 16 ZZO 1010,6 45
14.10.2018 23:00:00 16,7 5,1 18 10 - - Z 1010,2 45
14.10.2018 22:00:00 17,8 5,9 25 14 36 19 ZZO 1009,5 45
14.10.2018 21:00:00 18,2 6,3 25 14 36 19 ZZO 1009,1 45
14.10.2018 20:00:00 18,6 6,3 22 12 - - ZZO 1008,9 45
14.10.2018 19:00:00 19,6 6,4 14 8 32 18 Z 1008,5 45
14.10.2018 18:00:00 21,0 7,3 18 10 43 23 Z 1007,9 40
14.10.2018 17:00:00 22,0 7,9 18 10 - - Z 1007,9 35
14.10.2018 16:00:00 21,8 7,7 25 14 50 27 Z 1007,8 40
14.10.2018 15:00:00 21,5 8,0 25 14 54 29 Z 1007,9 40
14.10.2018 14:00:00 21,0 7,6 25 14 - - Z 1008,9 30
14.10.2018 13:00:00 20,7 8,1 25 14 54 29 Z 1009,1 40
14.10.2018 12:00:00 19,3 8,5 25 14 47 25 Z 1009,7 35
14.10.2018 11:00:00 17,6 8,0 18 10 - - Z 1010,4 30
14.10.2018 10:00:00 15,6 10,4 14 8 25 14 Z 1011,0 35
14.10.2018 09:00:00 14,4 9,4 14 8 29 16 Z 1011,3 40
14.10.2018 08:00:00 13,3 8,8 18 10 - - ZZO 1011,4 40
14.10.2018 07:00:00 13,4 8,8 25 14 36 19 ZZO 1011,4 35
14.10.2018 06:00:00 14,1 9,3 25 14 32 18 ZZO 1011,7 40
14.10.2018 05:00:00 14,8 9,2 22 12 - - ZZO 1012,1 45
14.10.2018 04:00:00 14,9 8,9 18 10 29 16 ZZO 1012,8 40
14.10.2018 03:00:00 15,0 8,9 18 10 29 16 Z 1013,4 45
14.10.2018 02:00:00 16,2 9,4 14 8 - - ZZO 1013,5 40
14.10.2018 01:00:00 16,5 9,1 14 8 29 16 ZZO 1014,1 45
14.10.2018 00:00:00 16,8 9,0 18 10 25 14 ZZO 1014,6 45
13.10.2018 23:00:00 17,4 9,3 18 10 - - ZZO 1014,7 45
13.10.2018 22:00:00 17,9 9,0 18 10 36 19 ZZO 1014,7 45
13.10.2018 21:00:00 18,9 9,3 22 12 36 19 ZZO 1014,7 45
13.10.2018 20:00:00 19,5 9,6 22 12 - - ZZO 1014,9 45
13.10.2018 19:00:00 20,2 9,4 22 12 36 19 ZZO 1014,9 45
13.10.2018 18:00:00 21,5 9,6 25 14 36 19 ZZO 1014,8 40
13.10.2018 17:00:00 22,5 9,6 22 12 - - ZZO 1015,6 40
13.10.2018 16:00:00 23,0 10,7 22 12 36 19 ZZO 1016,2 30
13.10.2018 15:00:00 22,8 10,8 22 12 40 21 ZZO 1016,9 30
13.10.2018 14:00:00 22,4 11,0 22 12 - - Z 1017,6 35
13.10.2018 13:00:00 21,3 12,3 18 10 32 18 ZZO 1018,6 40
13.10.2018 12:00:00 19,6 12,8 18 10 32 18 ZZO 1019,5 30
13.10.2018 11:00:00 17,9 12,5 22 12 - - ZZO 1020,2 30
13.10.2018 10:00:00 15,7 11,5 25 14 40 21 ZZO 1020,7 30
13.10.2018 09:00:00 14,8 11,1 25 14 36 19 ZO 1020,8 35
13.10.2018 08:00:00 - - - - - - - - -
13.10.2018 07:00:00 - - - - - - - - -
13.10.2018 06:00:00 15,8 11,0 22 12 29 16 ZZO 1021,4 45
13.10.2018 05:00:00 15,7 10,9 22 12 - - ZZO 1021,5 40
13.10.2018 04:00:00 15,7 10,8 18 10 29 16 ZZO 1021,4 40
13.10.2018 03:00:00 16,4 11,1 22 12 29 16 ZZO 1021,4 45
13.10.2018 02:00:00 16,5 11,1 22 12 - - ZZO 1021,3 45
13.10.2018 01:00:00 16,7 11,0 18 10 25 14 ZZO 1021,5 45
13.10.2018 00:00:00 17,1 11,1 14 8 22 12 Z 1021,6 45
12.10.2018 23:00:00 17,4 11,3 14 8 - - ZZO 1021,5 45
12.10.2018 22:00:00 17,6 11,3 18 10 25 14 ZZO 1021,4 45
12.10.2018 21:00:00 17,8 11,3 11 6 22 12 Z 1021,2 45
12.10.2018 20:00:00 18,3 11,5 14 8 - - ZZO 1020,8 40
12.10.2018 19:00:00 19,1 11,9 14 8 25 14 ZZO 1020,2 40
12.10.2018 18:00:00 20,4 12,4 14 8 29 16 ZZO 1019,7 45

tt = temperatuur
td = dauwpunt
ff = windsnelheid
fx = windstoten
dd = windrichting
ppp = luchtdruk
vv = zicht

Weerstations in de omgeving